Location: Palomar Observatory
(33.3560°N, 116.8630°W)
Time: 20:39:26
(UTC-07:00)

Iridium 57 - Visible Passes

Search period start: 27 June 2017 00:00
Search period end: 07 July 2017 00:00
Orbit: 776 x 779 km, 86.4° (Epoch: 26 June)

Date Brightness Start Highest point End Pass type
(mag) Time Alt. Az. Time Alt. Az. Time Alt. Az.
27 Jun 6.5 01:22:44 44° NNE 01:22:44 44° NNE 01:26:18 10° N visible
28 Jun 7.0 00:49:17 31° NE 00:49:17 31° NE 00:52:26 10° NNE visible
28 Jun 7.5 02:29:45 17° WNW 02:29:45 17° WNW 02:31:58 10° NW visible
29 Jun 7.6 00:15:49 18° ENE 00:15:49 18° ENE 00:18:02 10° NE visible
29 Jun 7.0 01:56:17 28° NW 01:56:17 28° NW 01:59:24 10° NNW visible
30 Jun 6.6 01:22:49 40° NNW 01:22:49 40° NNW 01:26:12 10° N visible
01 Jul 6.8 00:49:20 37° NNE 00:49:20 37° NNE 00:52:35 10° N visible
01 Jul 7.9 02:29:48 11° WNW 02:29:48 11° WNW 02:30:30 10° NW visible
02 Jul 7.3 00:15:51 24° NE 00:15:51 24° NE 00:18:33 10° NNE visible
02 Jul 7.4 01:56:19 20° NW 01:56:19 20° NW 01:58:51 10° NNW visible
02 Jul 7.8 23:42:22 14° ENE 23:42:22 14° ENE 23:43:47 10° NE visible
03 Jul 6.9 01:22:50 32° NW 01:22:50 32° NW 01:25:58 10° NNW visible
04 Jul 6.7 00:49:20 40° N 00:49:20 40° N 00:52:36 10° N visible
05 Jul 7.0 00:15:50 31° NE 00:15:50 31° NE 00:18:50 10° NNE visible
05 Jul 7.8 01:56:18 14° WNW 01:56:18 14° WNW 01:57:56 10° NW visible
05 Jul 7.5 23:42:20 19° NE 23:42:20 19° NE 23:44:34 10° NNE visible
06 Jul 7.3 01:22:48 25° NW 01:22:48 25° NW 01:25:34 10° NNW visible
06 Jul 8.0 23:08:49 10° ENE 23:08:49 10° ENE 23:09:04 10° ENE visible
